Weather History for KPWK - March, 2014

Change the Weather History Date:

Monday, March 3, 2014

  Actual Average Record
Temperature  
Mean Temperature 8 °F 33 °F  
Max Temperature 20 °F 41 °F 57 °F (2008)
Min Temperature -4 °F 25 °F -4 °F (2014)
Degree Days  
Heating Degree Days 57 32  
Month to date heating degree days 161 97  
Since 1 July heating degree days 5520 4835  
Cooling Degree Days 0 0  
Month to date cooling degree days 0 0  
Year to date cooling degree days 0 0  
Moisture  
Dew Point -2 °F    
Average Humidity 62    
Maximum Humidity 74    
Minimum Humidity 49    
Precipitation  
Precipitation T in 0.07 in 0.40 in (2008)
Month to date precipitation T 0.19  
Year to date precipitation 2.13 2.77  
Sea Level Pressure  
Sea Level Pressure 30.49 in    
Wind  
Wind Speed 4 mph (West)    
Max Wind Speed 10 mph    
Max Gust Speed 15 mph    
Visibility 9 miles    
Events Snow    
T = Trace of Precipitation, MM = Missing Value Source: NWS Daily Summary

Daily Weather History Graph

Daily Weather History Graph

Search for Another Location

Airport or City:

Trip Planner

Search our weather history database for the weather conditions in past years. The results will help you decide how hot, cold, wet, or windy it might be!

Date:

Astronomy

Mar. 03, 2014 Rise Set
Actual Time 6:23 AM CST 5:44 PM CST
Civil Twilight 5:55 AM CST 6:12 PM CST
Nautical Twilight 5:23 AM CST 6:44 PM CST
Astronomical Twilight 4:50 AM CST 7:17 PM CST
Moon 7:28 AM CST (3/3) 8:50 PM CST (3/3)
Length of Visible Light 12h 16m
Length of Day
11h 20m
Waxing Crescent, 8% of the Moon is Illuminated
Mar 3
Waxing Crescent
Mar 8
First Quarter
Mar 16
Full
Mar 23
Last Quarter
Mar 30
New

Hourly Weather History & Observations

Time (CST) Temp. Windchill Dew Point Humidity Pressure Visibility Wind Dir Wind Speed Gust Speed Precip Events Conditions
12:52 AM 1.0 °F -11.7 °F -14.1 °F 49% 30.49 in 10.0 mi North 6.9 mph - N/A   Clear
1:52 AM -0.0 °F -14.2 °F -15.0 °F 49% 30.49 in 10.0 mi NNW 8.1 mph - N/A   Clear
2:52 AM -0.9 °F -14.1 °F -15.0 °F 52% 30.48 in 10.0 mi NNW 6.9 mph - N/A   Clear
3:52 AM -2.0 °F -15.4 °F -16.1 °F 51% 30.49 in 10.0 mi NNW 6.9 mph - N/A   Clear
4:52 AM -2.9 °F -17.7 °F -15.0 °F 56% 30.50 in 10.0 mi NNW 8.1 mph - N/A   Clear
5:52 AM -2.9 °F -16.5 °F -13.0 °F 62% 30.51 in 10.0 mi NNW 6.9 mph - N/A   Clear
6:52 AM -2.9 °F -18.8 °F -13.0 °F 62% 30.52 in 10.0 mi NW 9.2 mph - N/A   Mostly Cloudy
7:52 AM 1.0 °F -14.0 °F -8.0 °F 66% 30.53 in 10.0 mi NNW 9.2 mph - 0.00 in   Scattered Clouds
8:52 AM 5.0 °F -5.6 °F -4.0 °F 66% 30.53 in 10.0 mi NNW 5.8 mph - N/A   Mostly Cloudy
9:52 AM 9.0 °F 2.4 °F -0.0 °F 67% 30.55 in 10.0 mi WNW 3.5 mph - N/A   Overcast
10:43 AM 12.0 °F - 3.9 °F 70% 30.50 in 2.5 mi Calm Calm - 0.00 in Snow Light Snow
10:52 AM 12.0 °F 5.9 °F 5.0 °F 73% 30.54 in 2.5 mi SSW 3.5 mph - 0.00 in Snow Light Snow
11:50 AM 12.2 °F 4.3 °F 5.0 °F 73% 30.50 in 7.0 mi SSE 4.6 mph - 0.00 in   Overcast
11:52 AM 12.9 °F 6.9 °F 6.1 °F 74% 30.55 in 8.0 mi South 3.5 mph - 0.00 in   Overcast
12:52 PM 12.9 °F - 5.0 °F 71% 30.54 in 10.0 mi Calm Calm - N/A   Overcast
1:52 PM 17.1 °F - 5.0 °F 59% 30.51 in 10.0 mi Calm Calm - N/A   Clear
2:52 PM 17.1 °F 11.7 °F 5.0 °F 59% 30.51 in 10.0 mi South 3.5 mph - N/A   Clear
3:52 PM 18.0 °F - 5.0 °F 57% 30.50 in 10.0 mi Calm Calm - N/A   Clear
4:52 PM 19.0 °F 12.3 °F 3.0 °F 50% 30.49 in 10.0 mi SW 4.6 mph - N/A   Clear
5:52 PM 16.0 °F 6.3 °F 5.0 °F 62% 30.48 in 10.0 mi West 6.9 mph - N/A   Clear
6:52 PM 14.0 °F - 3.0 °F 62% 30.48 in 10.0 mi Calm Calm - N/A   Clear
7:52 PM 12.0 °F - 1.9 °F 64% 30.45 in 10.0 mi Calm Calm - N/A   Clear
8:52 PM 12.0 °F - 1.9 °F 64% 30.45 in 10.0 mi Calm Calm - N/A   Clear
9:52 PM 10.9 °F 4.7 °F -0.0 °F 61% 30.44 in 10.0 mi WSW 3.5 mph - N/A   Clear
10:52 PM 10.9 °F 4.7 °F 1.0 °F 64% 30.41 in 10.0 mi South 3.5 mph - N/A   Clear
11:52 PM 12.0 °F 5.9 °F 1.0 °F 61% 30.41 in 10.0 mi SSW 3.5 mph - N/A   Partly Cloudy